Location: Virginia Beach
(36.8530°N, 75.9780°W)
Time: 05:03:10
(UTC-04:00)

ISS - Visible Passes

Search period start: 02 July 2020 00:00
Search period end: 12 July 2020 00:00
Orbit: 417 x 420 km, 51.6° (Epoch: 02 July)

Date Brightness Start Highest point End Pass type
(mag) Time Alt. Az. Time Alt. Az. Time Alt. Az.
02 Jul -2.8 03:34:18 39° NW 03:34:24 39° NW 03:37:35 10° NE visible
03 Jul -1.7 02:48:03 28° NE 02:48:03 28° NE 02:49:50 10° NE visible
03 Jul -1.0 04:22:08 10° NW 04:23:46 13° NNW 04:25:24 10° N visible
04 Jul -0.5 02:01:46 11° NE 02:01:46 11° NE 02:01:56 10° NE visible
04 Jul -1.4 03:34:41 16° NW 03:35:39 18° NNW 03:38:01 10° NNE visible
05 Jul -1.5 02:48:20 23° N 02:48:20 23° N 02:50:28 10° NNE visible
06 Jul -0.7 02:01:57 16° NNE 02:01:57 16° NNE 02:02:47 10° NE visible
06 Jul -0.6 03:37:00 10° NNW 03:37:05 10° NNW 03:37:11 10° NNW visible
07 Jul -0.9 02:48:24 13° NNW 02:48:53 13° NNW 02:50:34 10° N visible
08 Jul -0.7 02:01:55 15° N 02:01:55 15° N 02:03:08 10° NNE visible
09 Jul -0.3 01:15:19 11° NNE 01:15:19 11° NNE 01:15:32 10° NNE visible
10 Jul -0.4 02:01:39 10° NNW 02:02:04 10° NNW 02:02:30 10° N visible
10 Jul -0.6 05:16:23 10° N 05:18:18 14° NNE 05:20:11 10° ENE visible
11 Jul -0.3 01:14:45 12° N 01:14:45 12° N 01:15:35 10° N visible
11 Jul -0.3 04:29:12 10° N 04:30:04 11° NNE 04:30:55 10° NNE visible
